sat.trackr.live / text

‹ back to catalog

STARLINK-30949

NORAD 58415 · 2023-180P

PAYLOAD ACTIVE UNKNOWN

§ Identity

Operator
Country
US
Launch date
2023-11-22
Launch site
AFETR
Launch vehicle
Mass (kg)
RCS (m²)

Purposes: comms

External: N2YO · Heavens-Above · Gunter

§ Orbital elements

Epoch: 2026-05-24T20:29:36.740544Z

Period
94.27 min
Inclination
43.0022°
Eccentricity
0.0001206
Mean motion
15.27579014 rev/d
Perigee alt
482.2 km
Apogee alt
483.9 km
Semi-major
6,861.2 km
B*
3.7851e-5
RAAN
342.4442°
Arg perigee
263.3046°
Mean anomaly
96.7669°
Rev number
13,927

§ Raw data

STARLINK-309491 58415U 23180P   26144.85389746  .00000780  00000+0  37851-4 0  99962 58415  43.0022 342.4442 0001206 263.3046  96.7669 15.27579014139278

JSON: /api/v1/satellites/58415 · /tle

For live sub-satellite position, see the globe view (requires WebGL).

§ Visibility from observer

Set your observer location to see the next 7 days of passes ≥ 10°. The values pass through the URL so the page stays shareable.

No JS? Fill the form by hand. The geolocation button needs JavaScript.